Home > Weather > Flagstaff > Past weeks

Flag for USA Past Weather in Flagstaff, Arizona, USA — Yesterday and Last 2 Weeks

Now
68 °F

Passing clouds.


Feels Like: 68 °F
Forecast: 49 / 67 °F
Wind: 5 mph from North

Location: Flagstaff Pulliam Airport

Current Time: Aug 26, 2016 at 1:12:45 PM

Latest Report: Aug 26, 2016 at 11:57 AM


Visibility: 10 mi

Pressure: 30.03 "Hg (23.50 "Hg at 2103m altitude)

Humidity: 49%

Dew Point: 48 °F

Location of FlagstaffLocation

Past Weather in Flagstaff — Graph

°F

Flagstaff Temperature Yesterday

Maximum temperature yesterday: 74 °F (at 12:57 PM)
Minimum temperature yesterday: 44 °F (at 5:57 AM)
Average temperature yesterday: 57 °F

High & Low Weather Summary for the Past Weeks

 TemperatureHumidityPressure
High81 °F (Aug 15, 3:57 PM)100% (Aug 22, 2:57 AM)30.15 "Hg (Aug 22, 2:57 AM)
Low44 °F (Aug 25, 5:57 AM)16% (Aug 13, 12:57 PM)29.91 "Hg (Aug 21, 3:57 PM)
Average60 °F67%30.04 "Hg
* Reported Aug 11 11:57 AM — Aug 26 11:57 AM, Flagstaff, Weather by CustomWeather, © 2016

Note: Actual official high and low records may vary slightly from our data, if they occured in-between our weather recording intervals... More about our weather records

Advertising

Flagstaff Weather History for the Previous 24 Hours

Scroll right to see more
 ConditionsComfort  
Time TempWeatherWind HumidityBarometerVisibility
11:57 AM
Fri, Aug 26
68 °FPassing clouds.5 mph49%30.03 "Hg10 mi
10:57 AM66 °FSunny.6 mph56%30.07 "Hg10 mi
9:57 AM61 °FScattered clouds.3 mph67%30.09 "Hg10 mi
8:57 AM58 °FSunny.3 mph75%30.09 "Hg10 mi
7:57 AM55 °FPassing clouds.5 mph83%30.11 "Hg10 mi
6:57 AM51 °FPartly sunny.3 mph96%30.11 "Hg10 mi
5:57 AM50 °FOvercast.7 mph96%30.09 "Hg10 mi
4:57 AM51 °FMostly cloudy.7 mph96%30.09 "Hg10 mi
3:57 AM50 °FOvercast.5 mph100%30.10 "Hg10 mi
2:57 AM51 °FLight rain. Overcast.3 mph96%30.05 "Hg9 mi
1:57 AM51 °FOvercast.5 mph96%30.02 "Hg10 mi
12:57 AM51 °FMostly cloudy.7 mph92%30.03 "Hg10 mi
11:57 PM
Thu, Aug 25
51 °FMostly cloudy.7 mph96%30.04 "Hg10 mi
10:57 PM52 °FPassing clouds.No wind93%30.03 "Hg10 mi
9:57 PM52 °FLight rain. Fog.6 mph93%30.04 "Hg6 mi
8:57 PM53 °FMostly cloudy.7 mph86%30.06 "Hg10 mi
7:57 PM53 °FLight rain. Mostly cloudy.3 mph89%30.07 "Hg9 mi
6:57 PM54 °FOvercast.5 mph83%30.08 "Hg10 mi
5:57 PM56 °FThunderstorms. Mostly cloudy.3 mph87%30.11 "Hg7 mi
4:57 PM57 °FThunderstorms. Partly sunny.No wind90%30.08 "Hg10 mi
3:57 PM57 °FOvercast.3 mph83%30.05 "Hg10 mi
2:57 PM70 °FPartly sunny.7 mph37%30.01 "Hg10 mi
1:57 PM73 °FPassing clouds.10 mph36%29.99 "Hg10 mi
Weather by CustomWeather, © 2016

See weather overviewHow to use our weather pages